TimeCST,TemperatureF,Dew PointF,Humidity,Sea Level PressureIn,VisibilityMPH,Wind Direction,Wind SpeedMPH,Gust SpeedMPH,PrecipitationIn,Events,Conditions,WindDirDegrees,DateUTC
12:44 AM,42.8,42.8,100,30.05,2.5,NW,9.2,-,N/A,,Overcast,320,2012-11-06 06:44:00
12:52 AM,42.1,41.0,96,30.06,2.5,NW,9.2,-,N/A,,Overcast,320,2012-11-06 06:52:00
1:05 AM,42.8,41.0,93,30.06,3.0,NW,8.1,-,N/A,,Overcast,320,2012-11-06 07:05:00
1:52 AM,42.8,41.0,93,30.05,4.0,NW,9.2,-,N/A,,Overcast,320,2012-11-06 07:52:00
2:52 AM,42.1,41.0,96,30.07,4.0,NW,5.8,-,N/A,,Overcast,310,2012-11-06 08:52:00
3:52 AM,42.1,41.0,96,30.07,5.0,NW,6.9,-,N/A,,Overcast,310,2012-11-06 09:52:00
4:10 AM,42.8,41.0,93,30.06,7.0,NNW,6.9,-,N/A,,Overcast,330,2012-11-06 10:10:00
4:52 AM,42.1,41.0,96,30.07,6.0,NNW,5.8,-,N/A,,Overcast,330,2012-11-06 10:52:00
5:52 AM,41.0,39.9,96,30.06,5.0,WNW,4.6,-,N/A,,Overcast,290,2012-11-06 11:52:00
6:52 AM,41.0,39.9,96,30.08,5.0,WNW,6.9,-,N/A,,Overcast,290,2012-11-06 12:52:00
7:52 AM,42.1,39.9,92,30.09,5.0,West,4.6,-,N/A,,Overcast,270,2012-11-06 13:52:00
8:02 AM,42.8,39.2,87,30.07,6.0,West,4.6,-,N/A,,Overcast,270,2012-11-06 14:02:00
8:52 AM,42.1,39.0,89,30.08,9.0,WSW,8.1,-,N/A,,Overcast,250,2012-11-06 14:52:00
9:49 AM,42.8,39.2,87,30.06,10.0,WSW,9.2,-,N/A,,Overcast,240,2012-11-06 15:49:00
9:52 AM,44.1,39.9,85,30.07,10.0,West,9.2,-,N/A,,Overcast,260,2012-11-06 15:52:00
10:52 AM,45.0,39.9,82,30.07,8.0,SW,8.1,-,N/A,,Mostly Cloudy,230,2012-11-06 16:52:00
11:31 AM,46.4,39.2,76,30.05,9.0,West,9.2,-,N/A,,Overcast,260,2012-11-06 17:31:00
11:43 AM,48.2,41.0,76,30.04,9.0,West,8.1,-,N/A,,Overcast,280,2012-11-06 17:43:00
11:52 AM,48.9,41.0,74,30.05,9.0,West,10.4,-,N/A,,Overcast,280,2012-11-06 17:52:00
12:52 PM,53.1,42.1,66,30.01,10.0,West,11.5,-,N/A,,Partly Cloudy,280,2012-11-06 18:52:00
1:52 PM,54.0,41.0,62,29.99,10.0,West,17.3,27.6,N/A,,Partly Cloudy,280,2012-11-06 19:52:00
2:52 PM,55.9,41.0,57,29.99,10.0,West,15.0,20.7,N/A,,Clear,280,2012-11-06 20:52:00
3:52 PM,55.0,39.9,57,29.99,10.0,West,13.8,-,N/A,,Partly Cloudy,280,2012-11-06 21:52:00
4:52 PM,53.1,37.9,57,29.99,10.0,West,10.4,-,N/A,,Clear,280,2012-11-06 22:52:00
5:52 PM,50.0,37.9,63,30.01,10.0,WNW,6.9,-,N/A,,Clear,290,2012-11-06 23:52:00
6:52 PM,48.9,37.0,64,30.04,10.0,WNW,5.8,-,N/A,,Clear,300,2012-11-07 00:52:00
7:52 PM,46.0,35.1,66,30.05,10.0,NW,4.6,-,N/A,,Clear,310,2012-11-07 01:52:00
8:52 PM,45.0,33.1,63,30.06,10.0,WNW,3.5,-,N/A,,Clear,300,2012-11-07 02:52:00
9:52 PM,45.0,32.0,60,30.05,10.0,WNW,5.8,-,N/A,,Clear,290,2012-11-07 03:52:00
10:52 PM,42.1,30.0,62,30.05,10.0,WNW,4.6,-,N/A,,Clear,300,2012-11-07 04:52:00
11:52 PM,39.0,30.9,73,30.06,10.0,NW,3.5,-,N/A,,Clear,320,2012-11-07 05:52:00